Hourly Data Report for May 31, 2020

WESTERN HEAD
NOVA SCOTIA
Current Station Operator: ECCC - MSC

43°59'24.070" N
64°39'51.008" W
10.10 m
8206240
71411
WWE

Download Data

Hourly Data (May 2020)
Hourly Data Report for May 31, 2020
TIME
LST
Temp Definition
°C
Dew Point Definition
°C
Rel Hum Definition
%
Precip. Amount Definition
mm

Wind Dir Definition
10's deg

Wind Spd Definition
km/h
Visibility Definition
km
Stn Press Definition
kPa
Hmdx Definition


Wind Chill Definition


Weather Definition


00:00 5.9 5.9 100 0.0 22 13   100.84     LegendNANA
01:00 5.6 5.6 100 0.0 22 13   100.78     LegendNANA
02:00 5.8 5.8 100 0.0 23 13   100.71     LegendNANA
03:00 5.4 5.4 100 0.0 22 8   100.68     LegendNANA
04:00 5.3 5.3 100 0.0 22 13   100.67     LegendNANA
05:00 5.4 5.4 100 0.0 22 13   100.68     LegendNANA
06:00 5.5 5.5 100 0.0 23 12   100.72     LegendNANA
07:00 6.1 6.1 100 0.0 22 9   100.76     LegendNANA
08:00 6.9 6.9 100 0.0 22 9   100.77     LegendNANA
09:00 7.7 7.7 100 0.2 22 8   100.75     LegendNANA
10:00 7.3 7.3 100 0.0 20 9   100.75     LegendNANA
11:00 8.3 8.3 100 0.0 21 11   100.76     LegendNANA
12:00 9.5 9.5 100 0.0 20 11   100.74     LegendNANA
13:00 10.4 10.4 100 0.0 21 15   100.72     LegendNANA
14:00 10.1 9.1 94 0.0 22 13   100.72     LegendNANA
15:00 9.2 7.9 91 0.0 19 11   100.73     LegendNANA
16:00 10.8 8.4 85 0.0 23 12   100.74     LegendNANA
17:00 11.0 7.6 80 0.0 22 10   100.72     LegendNANA
18:00 21.7 11.2 51 0.0 32 14   100.73     LegendNANA
19:00 19.7 8.3 48 0.0 30 16   100.81     LegendNANA
20:00 16.3 7.9 57 0.0 30 15   100.88     LegendNANA
21:00 14.6 6.3 57 0.0 31 21   100.97     LegendNANA
22:00 12.9 5.6 61 0.0 31 18   101.00     LegendNANA
23:00 11.6 5.8 67 0.0 32 20   101.03     LegendNANA

Notes on Data Quality.

Legend

  • E = Estimated
  • M = Missing
  • NA = Not Available*
  • [empty] = Indicates an unobserved value
Date modified: